Tracking 35334 objects as of 12-Sep-2026
HD Live streaming from Space Station
objects crossing your sky now

STARLINK-31332

Track STARLINK-31332 now!
10-day predictions
STARLINK-31332 is classified as:


NORAD ID: 59566
Int'l Code: 2024-076C
Launch date: April 23, 2024
Source: United States (US)
Launch site: AIR FORCE EASTERN TEST RANGE (AFETR)
Your satellite tracking list
Your tracking list is empty




NASA's NSSDC Master Catalog

Two Line Element Set (TLE):
1 59566U 24076C   26254.70339777  .00000405  00000-0  24232-4 0  9998
2 59566  43.0042  38.2697 0001206 272.8642  87.2072 15.27580292134950
Source of the keplerian elements: AFSPC